[[{"header":{"parameterUnit":"m.s-1","parameterCategory":1,"la1":30.2991,"la2":30.254,"lo1":-89.0895,"lo2":-89.0444,"dy":0.0017,"dx":0.0017,"nx":28,"ny":28,"refTime":"2024-08-24T21:00:00:Z","depth":0,"parameterNumber":2,"parameterNumberName":"U-component_of_WINDS"},"data":[0,0,0,0,0,0,0,0,0,0,0,0,0,0,0,0,0,0,0,0,0,0,0,0,0,0,0,0,0,0,0,0,0,0,0,0,0,0,0,0,0,0,0,0,0,0,0,0,0,0,0,0,0,0,0,0,0,0,-2.3984,-2.3984,0,-2.396,-2.3959,-2.3959,-2.388,-2.3878,-2.3876,-2.3875,-2.3851,-2.3852,-2.3853,0,0,0,0,0,0,0,0,0,0,0,0,0,-2.3966,-2.3967,-2.3984,-2.3984,-2.3984,-2.396,-2.3959,-2.3959,-2.388,-2.3878,-2.3876,-2.3874,-2.3851,-2.3852,-2.3853,0,0,0,0,0,0,0,0,0,0,0,0,0,-2.3961,-2.3967,-2.3984,-2.3941,-2.3937,-2.396,-2.3959,-2.3959,-2.3881,-2.3878,-2.3875,-2.3873,-2.385,-2.3852,-2.3853,-2.3916,0,0,-2.3858,-2.3859,0,0,0,0,0,0,0,0,-2.3961,-2.3962,-2.3948,-2.3944,-2.394,-2.392,-2.3944,-2.3945,-2.3881,-2.3902,-2.3874,-2.3871,-2.3876,-2.3875,-2.3877,-2.3915,-2.3914,-2.3858,-2.3859,-2.386,-2.386,0,0,0,0,0,0,0,-2.3962,-2.3962,-2.3974,-2.3948,-2.3943,-2.3924,-2.3921,-2.3944,-2.3904,-2.39,-2.3894,-2.3892,-2.3874,-2.3875,-2.3876,-2.3913,-2.3858,-2.3859,-2.386,-2.3861,-2.4003,-2.4006,0,0,0,0,0,0,-2.3968,-2.3963,-2.3975,-2.3974,-2.3944,-2.3927,-2.3923,-2.3929,-2.3904,-2.3898,-2.3895,-2.3889,-2.3874,-2.3874,-2.3874,-2.3946,-2.386,-2.3861,-2.3862,-2.4001,-2.4004,-2.4007,0,0,0,0,0,0,-2.3968,-2.397,-2.3976,-2.3967,-2.3966,-2.393,-2.3938,-2.393,-2.3932,-2.39,-2.3893,-2.3904,-2.3872,-2.3872,-2.3906,-2.3945,-2.3862,-2.3863,-2.3997,-2.4002,-2.4006,-2.4091,0,0,0,0,0,0,-2.3968,-2.397,-2.3993,-2.3968,-2.3967,-2.4008,-2.394,-2.3931,-2.3934,-2.3926,-2.3906,-2.39,-2.387,-2.3905,-2.3908,-2.3945,-2.3864,-2.3994,-2.3999,-2.4004,-2.4085,-2.4098,-2.4109,0,0,0,0,0,-2.3967,-2.4018,-2.3994,-2.3996,-2.3994,-2.401,-2.401,-2.3973,-2.3938,-2.3961,-2.3941,-2.3901,-2.394,-2.3909,-2.3912,-2.395,-2.3991,-2.3998,-2.4004,-2.4079,-2.4095,-2.4109,0,0,0,0,0,0,-2.4048,-2.4014,-2.3987,-2.4031,-2.4024,-2.3997,-2.4024,-2.3991,-2.3994,-2.3987,-2.3942,-2.3938,-2.3979,-2.3968,-2.3934,-2.401,-2.3959,-2.3967,-2.4015,-2.403,-2.4042,-2.4043,-2.3866,0,0,0,0,0,-2.4071,-2.4085,-2.4055,-2.4097,-2.4095,-2.4061,-2.4066,-2.4039,-2.403,-2.4027,-2.4009,-2.4003,-2.4014,-2.4022,-2.403,-2.4083,-2.4078,-2.4112,-2.4124,-2.4134,-2.414,-2.4169,-2.4184,-2.4028,-2.4028,-2.4028,0,0,-2.4118,-2.4101,-2.4113,-2.4113,-2.4104,-2.4121,-2.4058,-2.4079,-2.4092,-2.403,-2.4061,-2.4048,-2.4038,-2.4083,-2.4102,-2.4075,-2.4183,-2.4142,-2.415,-2.4151,-2.4177,-2.4192,-2.4205,-2.4033,-2.4032,-2.4031,0,0,-2.4212,-2.4201,-2.4235,-2.4228,-2.4216,-2.4193,-2.4202,-2.418,-2.4169,-2.42,-2.4154,-2.4169,-2.4189,-2.4184,-2.4184,-2.4281,-2.4245,-2.4285,-2.4348,-2.4376,-2.4388,-2.4399,-2.4433,-2.4446,-2.4292,-2.4292,-2.4292,0,-2.4272,-2.4296,-2.4256,-2.428,-2.4282,-2.4228,-2.4262,-2.4258,-2.425,-2.4253,-2.4223,-2.4248,-2.4237,-2.428,-2.4304,-2.4306,-2.4315,-2.4286,-2.439,-2.44,-2.4409,-2.4442,-2.4455,-2.4297,-2.4296,-2.4296,-2.4295,0,-2.437,-2.4388,-2.4417,-2.441,-2.4415,-2.4445,-2.4411,-2.4422,-2.4395,-2.4376,-2.4409,-2.4395,-2.44,-2.4408,-2.4382,-2.4448,-2.4432,-2.4397,-2.4345,-2.443,-2.4459,-2.4471,-2.4304,-2.4302,-2.4301,-2.4299,0,0,-2.4512,-2.4485,-2.4496,-2.4493,-2.4478,-2.4491,-2.4519,-2.4524,-2.4534,-2.4531,-2.4554,-2.4573,-2.4541,-2.4541,-2.4515,-2.454,-2.4618,-2.4501,-2.4501,-2.4523,-2.469,-2.4716,-2.4731,-2.4595,-2.4597,-2.4599,-2.4691,0,-2.4601,-2.4646,-2.4613,-2.4664,-2.468,-2.463,-2.4655,-2.4649,-2.4633,-2.4645,-2.4627,-2.4642,-2.4598,-2.4598,-2.4621,-2.4603,-2.465,-2.4596,-2.4616,-2.4617,-2.4618,-2.4747,-2.4774,-2.4861,-2.4703,-2.4704,-2.4706,0,-2.4711,-2.4713,-2.4766,-2.4748,-2.4754,-2.4776,-2.4779,-2.4791,-2.4784,-2.4771,-2.4773,-2.474,-2.4768,-2.4718,-2.4756,-2.472,-2.4727,-2.4719,-2.4722,-2.4721,-2.4666,-2.4749,-2.4888,-2.4902,-2.4724,-2.4722,-2.4721,0,-2.4809,-2.4825,-2.4859,-2.4858,-2.4838,-2.4856,-2.4849,-2.4839,-2.4844,-2.4848,-2.4851,-2.4858,-2.4861,-2.4868,-2.4839,-2.4805,-2.4881,-2.4828,-2.4871,-2.4872,-2.4888,-2.4887,-2.503,-2.4894,-2.4894,-2.4893,-2.4893,0,-2.4911,-2.4945,-2.4903,-2.4923,-2.4961,-2.4924,-2.4963,-2.495,-2.4943,-2.4961,-2.4919,-2.4938,-2.4898,-2.4913,-2.4891,-2.4927,-2.4929,-2.4919,-2.4913,-2.4922,-2.4923,-2.4925,-2.4918,-2.4897,-2.4896,-2.4895,-2.4895,0,-2.5026,-2.4999,-2.5032,-2.5012,-2.5008,-2.5036,-2.5019,-2.5038,-2.502,-2.5044,-2.5048,-2.502,-2.5036,-2.5008,-2.502,-2.5005,-2.5055,-2.5039,-2.5057,-2.5052,-2.5096,-2.5092,-2.5244,-2.5262,-2.5116,-2.5117,-2.5118,0,-2.5092,-2.5117,-2.51,-2.5109,-2.5105,-2.512,-2.5126,-2.5091,-2.5099,-2.5095,-2.5115,-2.5127,-2.5135,-2.5163,-2.5144,-2.5154,-2.5138,-2.519,-2.5139,-2.5148,-2.5138,-2.5137,-2.5139,-2.52,-2.5202,-2.5203,-2.5205,0,-2.5213,-2.5199,-2.5209,-2.5215,-2.5223,-2.5226,-2.5226,-2.5236,-2.52,-2.5212,-2.5227,-2.5233,-2.5246,-2.5259,-2.5265,-2.5259,-2.5226,-2.5222,-2.5232,-2.5241,-2.525,-2.5246,-2.5085,-2.5218,-2.5216,-2.5215,-2.5215,-2.5214,-2.5306,-2.5326,-2.5318,-2.533,-2.5327,-2.5329,-2.5346,-2.5331,-2.5343,-2.535,-2.533,-2.5351,-2.5345,-2.5349,-2.5347,-2.5363,-2.534,-2.5355,-2.5359,-2.5363,-2.537,-2.5249,-2.5364,-2.5364,-2.5364,-2.5363,-2.5363,0,-2.5424,-2.5417,-2.5429,-2.5431,-2.5442,-2.541,-2.541,-2.5421,-2.5439,-2.5437,-2.5446,-2.5465,-2.5478,-2.5461,-2.5472,-2.5488,-2.5474,-2.5492,-2.549,-2.5489,-2.539,-2.538,-2.5504,-2.5504,-2.5504,-2.5504,-2.5504,-2.5504,-2.5487,-2.5521,-2.5506,-2.5538,-2.5531,-2.555,-2.5553,-2.5555,-2.5552,-2.5575,-2.5586,-2.5575,-2.5567,-2.5577,-2.5588,-2.5583,-2.5589,-2.5613,-2.5603,-2.551,-2.5496,-2.5483,-2.5473,-2.5614,-2.5615,-2.57,-2.5701,-2.5702]},{"header":{"parameterUnit":"m.s-1","parameterCategory":1,"la1":30.2991,"la2":30.254,"lo1":-89.0895,"lo2":-89.0444,"dy":0.0017,"dx":0.0017,"nx":28,"ny":28,"refTime":"2024-08-24T21:00:00:Z","depth":0,"parameterNumber":3,"parameterNumberName":"V-component_of_WINDS"},"data":[0,0,0,0,0,0,0,0,0,0,0,0,0,0,0,0,0,0,0,0,0,0,0,0,0,0,0,0,0,0,0,0,0,0,0,0,0,0,0,0,0,0,0,0,0,0,0,0,0,0,0,0,0,0,0,0,0,0,1.5097,1.5096,0,1.5075,1.5075,1.5075,1.5078,1.5078,1.5078,1.5079,1.5053,1.5052,1.5051,0,0,0,0,0,0,0,0,0,0,0,0,0,1.5138,1.5137,1.5097,1.5096,1.5096,1.5075,1.5075,1.5075,1.5078,1.5078,1.5078,1.5079,1.5053,1.5052,1.5051,0,0,0,0,0,0,0,0,0,0,0,0,0,1.5118,1.5137,1.5097,1.5095,1.5095,1.5075,1.5075,1.5075,1.5077,1.5078,1.5079,1.5079,1.5054,1.5052,1.5051,1.503,0,0,1.5046,1.5045,0,0,0,0,0,0,0,0,1.5119,1.5117,1.5096,1.5095,1.5095,1.508,1.508,1.506,1.5077,1.5084,1.5079,1.5079,1.5061,1.5059,1.5054,1.5029,1.5028,1.5046,1.5045,1.5044,1.5044,0,0,0,0,0,0,0,1.5121,1.5118,1.5088,1.5095,1.5095,1.5095,1.5093,1.5076,1.507,1.5083,1.5084,1.5081,1.5061,1.5055,1.5053,1.5028,1.5046,1.5045,1.5044,1.5043,1.4987,1.4986,0,0,0,0,0,0,1.5123,1.5119,1.5089,1.5087,1.5109,1.5094,1.5091,1.5084,1.507,1.5068,1.5081,1.5081,1.5058,1.5055,1.5052,1.5028,1.5044,1.5043,1.5042,1.4987,1.4987,1.4986,0,0,0,0,0,0,1.5124,1.512,1.509,1.5103,1.5099,1.5092,1.5084,1.5083,1.5077,1.5068,1.5066,1.5076,1.5058,1.5054,1.5036,1.5027,1.5042,1.5041,1.4988,1.4987,1.4986,1.498,0,0,0,0,0,0,1.5125,1.5121,1.5113,1.5103,1.5099,1.5075,1.5084,1.5082,1.5075,1.5076,1.5063,1.5062,1.5058,1.5039,1.5035,1.5026,1.504,1.4989,1.4988,1.4987,1.4981,1.4979,1.4977,0,0,0,0,0,1.5126,1.5111,1.5113,1.5109,1.5089,1.5074,1.5071,1.5069,1.5074,1.5067,1.5061,1.5062,1.5029,1.5037,1.5033,1.5023,1.4989,1.4988,1.4987,1.4981,1.4979,1.4977,0,0,0,0,0,0,1.5118,1.5109,1.5111,1.5092,1.5084,1.5075,1.5064,1.5066,1.5055,1.5056,1.5052,1.5049,1.5031,1.5025,1.5034,1.5003,1.501,1.5008,1.5007,1.5005,1.5003,1.5005,1.5038,0,0,0,0,0,1.5114,1.5103,1.5096,1.508,1.5076,1.5071,1.5064,1.5063,1.5054,1.505,1.5043,1.5033,1.5021,1.5013,1.5001,1.498,1.4978,1.4972,1.497,1.4968,1.4966,1.4956,1.4953,1.4982,1.4982,1.4982,0,0,1.5105,1.51,1.5093,1.5078,1.5072,1.506,1.5068,1.5055,1.5046,1.5048,1.5031,1.5026,1.5015,1.4996,1.4987,1.499,1.4958,1.4967,1.4966,1.4964,1.4954,1.4951,1.4949,1.4981,1.4981,1.4981,0,0,1.5084,1.5078,1.5065,1.5059,1.505,1.5047,1.5044,1.5035,1.5032,1.5015,1.5017,1.5006,1.4985,1.4977,1.4971,1.4949,1.495,1.4945,1.4935,1.4925,1.4923,1.4921,1.4913,1.4911,1.4943,1.4943,1.4943,0,1.5074,1.5057,1.5057,1.5045,1.5039,1.5042,1.5028,1.5022,1.5009,1.5004,1.5009,1.4983,1.4976,1.4956,1.4951,1.4945,1.4941,1.4946,1.4924,1.4922,1.492,1.4912,1.4909,1.4943,1.4943,1.4943,1.4943,0,1.5046,1.5034,1.5024,1.5014,1.5007,1.4993,1.4991,1.4984,1.4984,1.4981,1.4964,1.4956,1.4943,1.4939,1.4938,1.4919,1.4921,1.4925,1.4931,1.4916,1.4909,1.4907,1.4942,1.4942,1.4943,1.4943,0,0,1.5016,1.5008,1.5004,1.5,1.4991,1.4982,1.497,1.4959,1.4952,1.4944,1.4933,1.4916,1.492,1.4913,1.4912,1.4903,1.4887,1.4908,1.4907,1.4904,1.4866,1.4863,1.486,1.4888,1.4888,1.4887,1.4867,0,1.4993,1.4972,1.4973,1.4953,1.4943,1.4947,1.4936,1.4929,1.4927,1.4917,1.4914,1.4902,1.4908,1.4904,1.4896,1.4891,1.4879,1.4892,1.4877,1.4877,1.4879,1.4856,1.4852,1.4833,1.4864,1.4864,1.4863,0,1.4964,1.4956,1.4936,1.4931,1.4926,1.4917,1.4908,1.4899,1.4892,1.489,1.4884,1.4884,1.4871,1.488,1.4862,1.4871,1.4865,1.4862,1.4862,1.4859,1.4868,1.4853,1.4827,1.4824,1.4859,1.4859,1.486,0,1.4944,1.4929,1.4915,1.4912,1.4905,1.4898,1.4895,1.4889,1.4883,1.4875,1.4871,1.4861,1.4855,1.4847,1.4845,1.4852,1.4828,1.4836,1.4826,1.4826,1.4819,1.4819,1.4792,1.4817,1.4817,1.4817,1.4817,0,1.4918,1.4906,1.4907,1.4898,1.4884,1.4885,1.4871,1.4869,1.4863,1.4854,1.4857,1.4848,1.4847,1.4837,1.4836,1.4822,1.4819,1.4817,1.4817,1.4816,1.4817,1.4812,1.4813,1.4816,1.4816,1.4816,1.4817,0,1.4893,1.4894,1.4879,1.4875,1.4874,1.4864,1.486,1.4851,1.485,1.4838,1.4836,1.4833,1.4823,1.4821,1.4807,1.4807,1.479,1.4791,1.4792,1.4792,1.4782,1.4783,1.475,1.4746,1.4774,1.4773,1.4773,0,1.4877,1.4867,1.4863,1.4858,1.4855,1.4846,1.4841,1.4842,1.4836,1.4829,1.4821,1.4811,1.4803,1.4786,1.4783,1.4773,1.4774,1.4763,1.4772,1.4773,1.4773,1.4774,1.4773,1.4761,1.476,1.476,1.476,0,1.4847,1.4848,1.4841,1.4834,1.4828,1.4822,1.4816,1.4812,1.4812,1.4806,1.4796,1.479,1.4778,1.4768,1.4759,1.4755,1.4758,1.4758,1.4755,1.4754,1.4755,1.4754,1.4787,1.4758,1.4758,1.4758,1.4758,1.4758,1.4825,1.4818,1.4814,1.4806,1.4803,1.4798,1.4791,1.4789,1.4782,1.4773,1.4774,1.4763,1.4758,1.4746,1.4742,1.4734,1.4737,1.4733,1.4731,1.473,1.4729,1.4758,1.4732,1.4732,1.4732,1.4732,1.4732,0,1.4795,1.4794,1.4787,1.478,1.4774,1.4779,1.4774,1.4768,1.4759,1.4755,1.4748,1.4737,1.4728,1.4725,1.4716,1.471,1.4711,1.4708,1.4707,1.4707,1.4727,1.473,1.4707,1.4707,1.4707,1.4707,1.4707,1.4707,1.4779,1.4767,1.4768,1.4754,1.4753,1.4743,1.474,1.4736,1.4732,1.4721,1.4714,1.4713,1.4709,1.47,1.4693,1.4692,1.4688,1.4684,1.4684,1.4703,1.4705,1.4707,1.4711,1.4684,1.4684,1.4665,1.4665,1.4664]}]]